Location: Clandonald
(53.5720°N, 110.7141°W)
Time: 08:17:29
(UTC+00:00)

ISS - Visible Passes

Search period start: 20 September 2020 00:00
Search period end: 30 September 2020 00:00
Orbit: 419 x 420 km, 51.6° (Epoch: 20 September)

Date Brightness Start Highest point End Pass type
(mag) Time Alt. Az. Time Alt. Az. Time Alt. Az.
20 Sep -2.2 02:37:33 10° SSW 02:40:08 21° SSE 02:41:04 18° SE visible
20 Sep -1.3 04:13:12 10° WSW 04:14:04 17° WSW 04:14:04 17° WSW visible
21 Sep -3.1 03:25:56 10° SW 03:28:45 41° S 03:28:45 41° S visible
22 Sep -3.0 02:38:45 10° SW 02:41:52 35° SSE 02:43:21 23° ESE visible
22 Sep -1.5 04:15:05 10° WSW 04:16:19 21° WSW 04:16:19 21° WSW visible
23 Sep -2.5 01:51:39 10° SSW 01:54:35 27° SSE 01:57:30 10° E visible
23 Sep -3.5 03:27:43 10° WSW 03:30:48 57° SSW 03:30:48 57° SSW visible
24 Sep -3.5 02:40:23 10° WSW 02:43:41 52° SSE 02:45:13 27° ESE visible
24 Sep -1.4 04:16:59 10° W 04:18:11 20° W 04:18:11 20° W visible
25 Sep -3.2 01:53:05 10° SW 01:56:19 44° SSE 01:59:33 10° E visible
25 Sep -3.4 03:29:35 10° W 03:32:33 57° SW 03:32:33 57° SW visible
26 Sep -3.7 02:42:10 10° W 02:45:31 63° S 02:46:52 32° ESE visible
26 Sep -1.1 04:18:54 10° W 04:19:50 17° W 04:19:50 17° W visible
27 Sep -3.5 01:54:46 10° WSW 01:58:06 59° S 02:01:11 12° E visible
27 Sep -2.9 03:31:27 10° W 03:34:08 44° SW 03:34:08 44° SW visible
28 Sep -3.5 02:44:00 10° W 02:47:20 59° S 02:48:26 36° SE visible
28 Sep -0.8 04:20:54 10° W 04:21:23 13° W 04:21:23 13° W visible
29 Sep -3.5 01:56:33 10° W 01:59:54 63° S 02:02:44 14° ESE visible
29 Sep -2.3 03:33:20 10° W 03:35:41 30° SW 03:35:41 30° SW visible
